Miscellaneous Local Product
Issued by NWS Hastings, NE

Home | Current Version | Previous Version | Graphics & Text | Print | Product List | Glossary On
Versions: 1 2 3 4 5 6 7 8 9 10 11 12 13 14 15 16 17 18 19 20 21 22 23 24 25 26 27 28 29 30 31 32 33 34 35 36 37 38 39 40 41 42 43 44 45 46 47 48 49 50
546
AXUS43 KGID 290202
MISGRI

GID CWA HOURLY WEATHER ROUNDUP
NATIONAL WEATHER SERVICE HASTINGS NE
900 PM CDT TUE MAR 28 2017

NOTE: "FAIR" INDICATES FEW OR NO CLOUDS BELOW 12,000 FEET WITH NO
SIGNIFICANT WEATHER AND/OR OBSTRUCTIONS TO VISIBILITY.

...SOUTH CENTRAL NEBRASKA...

CITY           SKY/WX    TMP DP  RH WIND       PRES   REMARKS
GRAND ISLAND   LGT RAIN  44  43  96 NE9       30.07F
HASTINGS       LGT RAIN  44  41  89 NE9       30.07R FOG
KEARNEY        CLOUDY    45  39  81 NE9       30.06S
ORD            CLOUDY    47  40  76 CALM      30.08S
YORK           CLOUDY    45  41  87 NE12      30.06F
AURORA         DRIZZLE   44  43  95 NE10      30.06F
LEXINGTON      LGT RAIN  45  42  90 NE8       30.04F
HOLDREGE       RAIN      43  41  94 NE12      30.04S
HEBRON         RAIN      47  42  81 NE6       30.05R

...NEBRASKA PANHANDLE...

CITY           SKY/WX    TMP DP  RH WIND       PRES   REMARKS
CHADRON        CLOUDY    42  39  89 E7        30.11R
ALLIANCE       LGT RAIN  40  38  93 E8        30.08R WCI  34
SCOTTSBLUFF    LGT RAIN  42  39  89 E12       30.08R
SIDNEY         LGT RAIN  39  38  96 E10       30.05R WCI  32

...WESTERN AND NORTH CENTRAL NEBRASKA...

CITY           SKY/WX    TMP DP  RH WIND       PRES   REMARKS
VALENTINE      CLOUDY    43  40  89 NE10      30.13F
AINSWORTH      LGT RAIN  43  43  99 NE9       30.12S
ONEILL         CLOUDY    49  42  76 N6        30.11R
BROKEN BOW     LGT RAIN  46  40  79 NE6       30.07S
IMPERIAL       LGT RAIN  43  40  89 CALM      30.02R
NORTH PLATTE   LGT RAIN  44  40  85 NE15      30.04S
MCCOOK         LGT RAIN  45  44  97 NE20      30.01R FOG

...EASTERN NEBRASKA...

CITY           SKY/WX    TMP DP  RH WIND       PRES   REMARKS
NORFOLK        CLOUDY    48  41  76 CALM      30.09R
SO SIOUX CITY  CLOUDY    50  43  77 SE9       30.13R
TEKAMAH        CLOUDY    50  42  74 E8        30.11S
COLUMBUS       CLOUDY    46  39  76 E6        30.10R
ALBION         CLOUDY    47  41  79 SE3       30.10R
OMAHA EPPLEY   CLOUDY    50  41  71 NE8       30.10R
OFFUTT AFB     CLOUDY    49  42  77 NE9       30.08R
MILLARD        CLOUDY    51  44  75 NE5       30.10R
LINCOLN        CLOUDY    48  42  80 NE10      30.08F
NEBRASKA CITY  CLOUDY    49  41  74 NE9       30.07R
BEATRICE       CLOUDY    48  43  82 NE17      30.00F
FALLS CITY     CLOUDY    52  47  83 E8        30.03F

...NORTHERN KANSAS...

CITY           SKY/WX    TMP DP  RH WIND       PRES   REMARKS
GOODLAND       CLOUDY    41  41 100 E16       29.95R FOG
HILL CITY      CLOUDY    46  45  96 NE13      29.99R FOG
NORTON         CLOUDY    43  39  87 NE10      30.00R
PHILLIPSBURG   CLOUDY    46  46 100 NE15G21   29.98F
HAYS             N/A     46  45  96 E21G32    29.90F FOG
RUSSELL        RAIN      47  45  93 E12       29.97R FOG
CONCORDIA      LGT RAIN  46  45  96 NE10      30.01R FOG
SALINA         LGT RAIN  51  48  89 NE10      29.96F
TOPEKA         CLOUDY    53  51  93 E15       29.98S



USA.gov is the U.S. government's official web portal to all federal, state and local government web resources and services.